Tracking 30009 objects as of 8-Dec-2024
HD Live streaming from Space Station
objects crossing your sky now

ONEWEB-0542

Track ONEWEB-0542 now!
10-day predictions
ONEWEB-0542 is classified as:


NORAD ID: 54646
Int'l Code: 2022-166E
Perigee: 1,183.1 km
Apogee: 1,186.6 km
Inclination: 87.9 °
Period: 108.9 minutes
Semi major axis: 7555 km
RCS: Unknown
Launch date: December 8, 2022
Source: United Kingdom (UK)
Launch site: AIR FORCE EASTERN TEST RANGE (AFETR)
Your satellite tracking list
Your tracking list is empty




NASA's NSSDC Master Catalog

Two Line Element Set (TLE):
1 54646U 22166E   24342.77913247  .00000015  00000-0  57433-5 0  9990
2 54646  87.9299 354.8412 0002316  90.5996 269.5403 13.21827839 98491
Source of the keplerian elements: AFSPC